Year,Month,Day,Hour,Minute,Value (Times are PST for temperature in C)
2013,05,02,00,00,5.70
2013,05,02,00,01,5.70
2013,05,02,00,02,5.70
2013,05,02,00,03,5.70
2013,05,02,00,04,5.70
2013,05,02,00,05,5.70
2013,05,02,00,06,5.70
2013,05,02,00,07,5.70
2013,05,02,00,08,5.70
2013,05,02,00,09,5.70
2013,05,02,00,10,5.70
2013,05,02,00,11,5.60
2013,05,02,00,12,5.60
2013,05,02,00,13,5.60
2013,05,02,00,14,5.60
2013,05,02,00,15,5.60
2013,05,02,00,16,5.60
2013,05,02,00,17,5.60
2013,05,02,00,18,5.60
2013,05,02,00,19,5.60
2013,05,02,00,20,5.50
2013,05,02,00,21,5.50
2013,05,02,00,22,5.50
2013,05,02,00,23,5.40
2013,05,02,00,24,5.40
2013,05,02,00,25,5.40
2013,05,02,00,26,5.40
2013,05,02,00,27,5.30
2013,05,02,00,28,5.30
2013,05,02,00,29,5.30
2013,05,02,00,30,5.30
2013,05,02,00,31,5.30
2013,05,02,00,32,5.30
2013,05,02,00,33,5.20
2013,05,02,00,34,5.20
2013,05,02,00,35,5.20
2013,05,02,00,36,5.20
2013,05,02,00,37,5.20
2013,05,02,00,38,5.20
2013,05,02,00,39,5.20
2013,05,02,00,40,5.20
2013,05,02,00,41,5.20
2013,05,02,00,42,5.10
2013,05,02,00,43,5.10
2013,05,02,00,44,5.10
2013,05,02,00,45,5.10
2013,05,02,00,46,5.10
2013,05,02,00,47,5.10
2013,05,02,00,48,5.10
2013,05,02,00,49,5.10
2013,05,02,00,50,5.10
2013,05,02,00,51,5.10
2013,05,02,00,52,5.10
2013,05,02,00,53,5.10
2013,05,02,00,54,5.10
2013,05,02,00,55,5.10
2013,05,02,00,56,5.10
2013,05,02,00,57,5.10
2013,05,02,00,58,5.00
2013,05,02,00,59,5.00
2013,05,02,01,00,5.00
2013,05,02,01,01,5.00
2013,05,02,01,02,4.90
2013,05,02,01,03,4.90
2013,05,02,01,04,4.90
2013,05,02,01,05,4.90
2013,05,02,01,06,4.90
2013,05,02,01,07,4.80
2013,05,02,01,08,4.80
2013,05,02,01,09,4.80
2013,05,02,01,10,4.80
2013,05,02,01,11,4.80
2013,05,02,01,12,4.80
2013,05,02,01,13,4.80
2013,05,02,01,14,4.80
2013,05,02,01,15,4.80
2013,05,02,01,16,4.80
2013,05,02,01,17,4.80
2013,05,02,01,18,4.80
2013,05,02,01,19,4.70
2013,05,02,01,20,4.70
2013,05,02,01,21,4.70
2013,05,02,01,22,4.70
2013,05,02,01,23,4.70
2013,05,02,01,24,4.70
2013,05,02,01,25,4.70
2013,05,02,01,26,4.70
2013,05,02,01,27,4.60
2013,05,02,01,28,4.60
2013,05,02,01,29,4.60
2013,05,02,01,30,4.60
2013,05,02,01,31,4.60
2013,05,02,01,32,4.60
2013,05,02,01,33,4.60
2013,05,02,01,34,4.60
2013,05,02,01,35,4.60
2013,05,02,01,36,4.60
2013,05,02,01,37,4.50
2013,05,02,01,38,4.50
2013,05,02,01,39,4.50
2013,05,02,01,40,4.50
2013,05,02,01,41,4.40
2013,05,02,01,42,4.40
2013,05,02,01,43,4.40
2013,05,02,01,44,4.40
2013,05,02,01,45,4.40
2013,05,02,01,46,4.40
2013,05,02,01,47,4.40
2013,05,02,01,48,4.40
2013,05,02,01,49,4.30
2013,05,02,01,50,4.30
2013,05,02,01,51,4.30
2013,05,02,01,52,4.30
2013,05,02,01,53,4.30
2013,05,02,01,54,4.30
2013,05,02,01,55,4.30
2013,05,02,01,56,4.30
2013,05,02,01,57,4.30
2013,05,02,01,58,4.30
2013,05,02,01,59,4.30
2013,05,02,02,00,4.30
2013,05,02,02,01,4.30
2013,05,02,02,02,4.20
2013,05,02,02,03,4.20
2013,05,02,02,04,4.20
2013,05,02,02,05,4.20
2013,05,02,02,06,4.20
2013,05,02,02,07,4.20
2013,05,02,02,08,4.20
2013,05,02,02,09,4.20
2013,05,02,02,10,4.20
2013,05,02,02,11,4.10
2013,05,02,02,12,4.10
2013,05,02,02,13,4.10
2013,05,02,02,14,4.10
2013,05,02,02,15,4.10
2013,05,02,02,16,4.10
2013,05,02,02,17,4.10
2013,05,02,02,18,4.00
2013,05,02,02,19,4.00
2013,05,02,02,20,4.00
2013,05,02,02,21,4.00
2013,05,02,02,22,3.90
2013,05,02,02,23,3.90
2013,05,02,02,24,3.90
2013,05,02,02,25,3.90
2013,05,02,02,26,3.90
2013,05,02,02,27,3.90
2013,05,02,02,28,3.90
2013,05,02,02,29,3.80
2013,05,02,02,30,3.80
2013,05,02,02,31,3.80
2013,05,02,02,32,3.80
2013,05,02,02,33,3.80
2013,05,02,02,34,3.80
2013,05,02,02,35,3.80
2013,05,02,02,36,3.80
2013,05,02,02,37,3.80
2013,05,02,02,38,3.80
2013,05,02,02,39,3.80
2013,05,02,02,40,3.80
2013,05,02,02,41,3.80
2013,05,02,02,42,3.80
2013,05,02,02,43,3.80
2013,05,02,02,44,3.80
2013,05,02,02,45,3.80
2013,05,02,02,46,3.80
2013,05,02,02,47,3.80
2013,05,02,02,48,3.80
2013,05,02,02,49,3.80
2013,05,02,02,50,3.70
2013,05,02,02,51,3.70
2013,05,02,02,52,3.70
2013,05,02,02,53,3.70
2013,05,02,02,54,3.70
2013,05,02,02,55,3.70
2013,05,02,02,56,3.70
2013,05,02,02,57,3.70
2013,05,02,02,58,3.70
2013,05,02,02,59,3.70
2013,05,02,03,00,3.70
2013,05,02,03,01,3.70
2013,05,02,03,02,3.70
2013,05,02,03,03,3.70
2013,05,02,03,04,3.70
2013,05,02,03,05,3.70
2013,05,02,03,06,3.70
2013,05,02,03,07,3.60
2013,05,02,03,08,3.60
2013,05,02,03,09,3.60
2013,05,02,03,10,3.60
2013,05,02,03,11,3.60
2013,05,02,03,12,3.60
2013,05,02,03,13,3.60
2013,05,02,03,14,3.60
2013,05,02,03,15,3.60
2013,05,02,03,16,3.60
2013,05,02,03,17,3.60
2013,05,02,03,18,3.60
2013,05,02,03,19,3.60
2013,05,02,03,20,3.60
2013,05,02,03,21,3.60
2013,05,02,03,22,3.60
2013,05,02,03,23,3.60
2013,05,02,03,24,3.50
2013,05,02,03,25,3.50
2013,05,02,03,26,3.50
2013,05,02,03,27,3.50
2013,05,02,03,28,3.50
2013,05,02,03,29,3.50
2013,05,02,03,30,3.50
2013,05,02,03,31,3.50
2013,05,02,03,32,3.50
2013,05,02,03,33,3.50
2013,05,02,03,34,3.50
2013,05,02,03,35,3.50
2013,05,02,03,36,3.50
2013,05,02,03,37,3.50
2013,05,02,03,38,3.50
2013,05,02,03,39,3.50
2013,05,02,03,40,3.50
2013,05,02,03,41,3.50
2013,05,02,03,42,3.50
2013,05,02,03,43,3.50
2013,05,02,03,44,3.50
2013,05,02,03,45,3.50
2013,05,02,03,46,3.40
2013,05,02,03,47,3.40
2013,05,02,03,48,3.40
2013,05,02,03,49,3.40
2013,05,02,03,50,3.40
2013,05,02,03,51,3.40
2013,05,02,03,52,3.40
2013,05,02,03,53,3.40
2013,05,02,03,54,3.30
2013,05,02,03,55,3.30
2013,05,02,03,56,3.30
2013,05,02,03,57,3.30
2013,05,02,03,58,3.30
2013,05,02,03,59,3.30
2013,05,02,04,00,3.30
2013,05,02,04,01,3.30
2013,05,02,04,02,3.30
2013,05,02,04,03,3.30
2013,05,02,04,04,3.20
2013,05,02,04,05,3.20
2013,05,02,04,06,3.20
2013,05,02,04,07,3.20
2013,05,02,04,08,3.20
2013,05,02,04,09,3.20
2013,05,02,04,10,3.20
2013,05,02,04,11,3.20
2013,05,02,04,12,3.20
2013,05,02,04,13,3.20
2013,05,02,04,14,3.20
2013,05,02,04,15,3.20
2013,05,02,04,16,3.20
2013,05,02,04,17,3.20
2013,05,02,04,18,3.20
2013,05,02,04,19,3.20
2013,05,02,04,20,3.20
2013,05,02,04,21,3.10
2013,05,02,04,22,3.10
2013,05,02,04,23,3.10
2013,05,02,04,24,3.10
2013,05,02,04,25,3.10
2013,05,02,04,26,3.10
2013,05,02,04,27,3.00
2013,05,02,04,28,3.00
2013,05,02,04,29,3.00
2013,05,02,04,30,3.00
2013,05,02,04,31,2.90
2013,05,02,04,32,2.90
2013,05,02,04,33,2.90
2013,05,02,04,34,2.90
2013,05,02,04,35,2.90
2013,05,02,04,36,2.90
2013,05,02,04,37,2.90
2013,05,02,04,38,2.80
2013,05,02,04,39,2.80
2013,05,02,04,40,2.80
2013,05,02,04,41,2.80
2013,05,02,04,42,2.80
2013,05,02,04,43,2.80
2013,05,02,04,44,2.80
2013,05,02,04,45,2.80
2013,05,02,04,46,2.80
2013,05,02,04,47,2.80
2013,05,02,04,48,2.80
2013,05,02,04,49,2.80
2013,05,02,04,50,2.80
2013,05,02,04,51,2.80
2013,05,02,04,52,2.80
2013,05,02,04,53,2.80
2013,05,02,04,54,2.80
2013,05,02,04,55,2.80
2013,05,02,04,56,2.80
2013,05,02,04,57,2.80
2013,05,02,04,58,2.80
2013,05,02,04,59,2.80
2013,05,02,05,00,2.80
2013,05,02,05,01,2.80
2013,05,02,05,02,2.80
2013,05,02,05,03,2.80
2013,05,02,05,04,2.90
2013,05,02,05,05,2.90
2013,05,02,05,06,2.80
2013,05,02,05,07,2.80
2013,05,02,05,08,2.80
2013,05,02,05,09,2.80
2013,05,02,05,10,2.80
2013,05,02,05,11,2.80
2013,05,02,05,12,2.80
2013,05,02,05,13,2.80
2013,05,02,05,14,2.80
2013,05,02,05,15,2.80
2013,05,02,05,16,2.80
2013,05,02,05,17,2.80
2013,05,02,05,18,2.80
2013,05,02,05,19,2.80
2013,05,02,05,20,2.80
2013,05,02,05,21,2.80
2013,05,02,05,22,2.80
2013,05,02,05,23,2.80
2013,05,02,05,24,2.80
2013,05,02,05,25,2.80
2013,05,02,05,26,2.80
2013,05,02,05,27,2.80
2013,05,02,05,28,2.70
2013,05,02,05,29,2.70
2013,05,02,05,30,2.70
2013,05,02,05,31,2.70
2013,05,02,05,32,2.70
2013,05,02,05,33,2.70
2013,05,02,05,34,2.70
2013,05,02,05,35,2.70
2013,05,02,05,36,2.60
2013,05,02,05,37,2.60
2013,05,02,05,38,2.60
2013,05,02,05,39,2.60
2013,05,02,05,40,2.60
2013,05,02,05,41,2.60
2013,05,02,05,42,2.50
2013,05,02,05,43,2.50
2013,05,02,05,44,2.50
2013,05,02,05,45,2.50
2013,05,02,05,46,2.50
2013,05,02,05,47,2.50
2013,05,02,05,48,2.50
2013,05,02,05,49,2.50
2013,05,02,05,50,2.50
2013,05,02,05,51,2.50
2013,05,02,05,52,2.50
2013,05,02,05,53,2.50
2013,05,02,05,54,2.50
2013,05,02,05,55,2.50
2013,05,02,05,56,2.50
2013,05,02,05,57,2.50
2013,05,02,05,58,2.50
2013,05,02,05,59,2.50
2013,05,02,06,00,2.50
2013,05,02,06,01,2.50
2013,05,02,06,02,2.40
2013,05,02,06,03,2.40
2013,05,02,06,04,2.40
2013,05,02,06,05,2.40
2013,05,02,06,06,2.40
2013,05,02,06,07,2.40
2013,05,02,06,08,2.40
2013,05,02,06,09,2.40
2013,05,02,06,10,2.40
2013,05,02,06,11,2.40
2013,05,02,06,12,2.40
2013,05,02,06,13,2.40
2013,05,02,06,14,2.40
2013,05,02,06,15,2.40
2013,05,02,06,16,2.40
2013,05,02,06,17,2.40
2013,05,02,06,18,2.40
2013,05,02,06,19,2.40
2013,05,02,06,20,2.40
2013,05,02,06,21,2.40
2013,05,02,06,22,2.40
2013,05,02,06,23,2.40
2013,05,02,06,24,2.40
2013,05,02,06,25,2.40
2013,05,02,06,26,2.40
2013,05,02,06,27,2.40
2013,05,02,06,28,2.50
2013,05,02,06,29,2.50
2013,05,02,06,30,2.50
2013,05,02,06,31,2.50
2013,05,02,06,32,2.50
2013,05,02,06,33,2.50
2013,05,02,06,34,2.50
2013,05,02,06,35,2.50
2013,05,02,06,36,2.60
2013,05,02,06,37,2.60
2013,05,02,06,38,2.60
2013,05,02,06,39,2.60
2013,05,02,06,40,2.60
2013,05,02,06,41,2.60
2013,05,02,06,42,2.60
2013,05,02,06,43,2.60
2013,05,02,06,44,2.60
2013,05,02,06,45,2.60
2013,05,02,06,46,2.60
2013,05,02,06,47,2.60
2013,05,02,06,48,2.60
2013,05,02,06,49,2.70
2013,05,02,06,50,2.70
2013,05,02,06,51,2.70
2013,05,02,06,52,2.70
2013,05,02,06,53,2.70
2013,05,02,06,54,2.70
2013,05,02,06,55,2.70
2013,05,02,06,56,2.70
2013,05,02,06,57,2.80
2013,05,02,06,58,2.80
2013,05,02,06,59,2.80
2013,05,02,07,00,2.80
2013,05,02,07,01,2.90
2013,05,02,07,02,2.90
2013,05,02,07,03,2.90
2013,05,02,07,04,3.00
2013,05,02,07,05,3.10
2013,05,02,07,06,3.20
2013,05,02,07,07,3.20
2013,05,02,07,08,3.30
2013,05,02,07,09,3.40
2013,05,02,07,10,3.50
2013,05,02,07,11,3.50
2013,05,02,07,12,3.60
2013,05,02,07,13,3.70
2013,05,02,07,14,3.80
2013,05,02,07,15,3.90
2013,05,02,07,16,4.00
2013,05,02,07,17,4.10
2013,05,02,07,18,4.20
2013,05,02,07,19,4.30
2013,05,02,07,20,4.50
2013,05,02,07,21,4.60
2013,05,02,07,22,4.70
2013,05,02,07,23,4.80
2013,05,02,07,24,5.00
2013,05,02,07,25,5.10
2013,05,02,07,26,5.20
2013,05,02,07,27,5.30
2013,05,02,07,28,5.40
2013,05,02,07,29,5.60
2013,05,02,07,30,5.70
2013,05,02,07,31,5.80
2013,05,02,07,32,5.90
2013,05,02,07,33,6.00
2013,05,02,07,34,6.10
2013,05,02,07,35,6.20
2013,05,02,07,36,6.30
2013,05,02,07,37,6.40
2013,05,02,07,38,6.50
2013,05,02,07,39,6.70
2013,05,02,07,40,6.70
2013,05,02,07,41,6.80
2013,05,02,07,42,6.90
2013,05,02,07,43,7.00
2013,05,02,07,44,7.10
2013,05,02,07,45,7.20
2013,05,02,07,46,7.30
2013,05,02,07,47,7.40
2013,05,02,07,48,7.50
2013,05,02,07,49,7.60
2013,05,02,07,50,7.70
2013,05,02,07,51,7.70
2013,05,02,07,52,7.80
2013,05,02,07,53,7.90
2013,05,02,07,54,8.00
2013,05,02,07,55,8.10
2013,05,02,07,56,8.20
2013,05,02,07,57,8.30
2013,05,02,07,58,8.30
2013,05,02,07,59,8.40
2013,05,02,08,00,8.50
2013,05,02,08,01,8.60
2013,05,02,08,02,8.70
2013,05,02,08,03,8.80
2013,05,02,08,04,8.90
2013,05,02,08,05,9.00
2013,05,02,08,06,9.10
2013,05,02,08,07,9.20
2013,05,02,08,08,9.40
2013,05,02,08,09,9.60
2013,05,02,08,10,9.70
2013,05,02,08,11,9.80
2013,05,02,08,12,10.00
2013,05,02,08,13,10.10
2013,05,02,08,14,10.20
2013,05,02,08,15,10.30
2013,05,02,08,16,10.40
2013,05,02,08,17,10.50
2013,05,02,08,18,10.60
2013,05,02,08,19,10.70
2013,05,02,08,20,10.80
2013,05,02,08,21,10.80
2013,05,02,08,22,11.00
2013,05,02,08,23,11.00
2013,05,02,08,24,11.10
2013,05,02,08,25,11.20
2013,05,02,08,26,11.20
2013,05,02,08,27,11.30
2013,05,02,08,28,11.40
2013,05,02,08,29,11.50
2013,05,02,08,30,11.60
2013,05,02,08,31,11.70
2013,05,02,08,32,11.80
2013,05,02,08,33,11.90
2013,05,02,08,34,12.00
2013,05,02,08,35,12.00
2013,05,02,08,36,12.10
2013,05,02,08,37,12.10
2013,05,02,08,38,12.10
2013,05,02,08,39,12.20
2013,05,02,08,40,12.20
2013,05,02,08,41,12.20
2013,05,02,08,42,12.30
2013,05,02,08,43,12.30
2013,05,02,08,44,12.30
2013,05,02,08,45,12.30
2013,05,02,08,46,12.40
2013,05,02,08,47,12.50
2013,05,02,08,48,12.50
2013,05,02,08,49,12.60
2013,05,02,08,50,12.70
2013,05,02,08,51,12.70
2013,05,02,08,52,12.70
2013,05,02,08,53,12.80
2013,05,02,08,54,12.80
2013,05,02,08,55,12.80
2013,05,02,08,56,12.80
2013,05,02,08,57,12.80
2013,05,02,08,58,12.80
2013,05,02,08,59,12.90
2013,05,02,09,00,12.80
2013,05,02,09,01,12.80
2013,05,02,09,02,12.90
2013,05,02,09,03,12.90
2013,05,02,09,04,12.90
2013,05,02,09,05,12.90
2013,05,02,09,06,13.00
2013,05,02,09,07,12.90
2013,05,02,09,08,12.90
2013,05,02,09,09,13.00
2013,05,02,09,10,13.00
2013,05,02,09,11,13.00
2013,05,02,09,12,13.10
2013,05,02,09,13,13.10
2013,05,02,09,14,13.20
2013,05,02,09,15,13.20
2013,05,02,09,16,13.20
2013,05,02,09,17,13.20
2013,05,02,09,18,13.20
2013,05,02,09,19,13.20
2013,05,02,09,20,13.20
2013,05,02,09,21,13.30
2013,05,02,09,22,13.40
2013,05,02,09,23,13.40
2013,05,02,09,24,13.40
2013,05,02,09,25,13.50
2013,05,02,09,26,13.50
2013,05,02,09,27,13.60
2013,05,02,09,28,13.70
2013,05,02,09,29,13.80
2013,05,02,09,30,13.80
2013,05,02,09,31,13.80
2013,05,02,09,32,13.90
2013,05,02,09,33,14.00
2013,05,02,09,34,14.10
2013,05,02,09,35,14.10
2013,05,02,09,36,14.20
2013,05,02,09,37,14.30
2013,05,02,09,38,14.40
2013,05,02,09,39,14.40
2013,05,02,09,40,14.50
2013,05,02,09,41,14.50
2013,05,02,09,42,14.60
2013,05,02,09,43,14.60
2013,05,02,09,44,14.60
2013,05,02,09,45,14.70
2013,05,02,09,46,14.80
2013,05,02,09,47,14.80
2013,05,02,09,48,14.90
2013,05,02,09,49,14.80
2013,05,02,09,50,14.80
2013,05,02,09,51,14.70
2013,05,02,09,52,14.70
2013,05,02,09,53,14.60
2013,05,02,09,54,14.60
2013,05,02,09,55,14.70
2013,05,02,09,56,14.70
2013,05,02,09,57,14.80
2013,05,02,09,58,14.90
2013,05,02,09,59,14.90
2013,05,02,10,00,14.90
2013,05,02,10,01,14.90
2013,05,02,10,02,14.90
2013,05,02,10,03,14.90
2013,05,02,10,04,14.90
2013,05,02,10,05,14.90
2013,05,02,10,06,14.90
2013,05,02,10,07,14.90
2013,05,02,10,08,14.90
2013,05,02,10,09,14.80
2013,05,02,10,10,14.70
2013,05,02,10,11,14.70
2013,05,02,10,12,14.70
2013,05,02,10,13,14.70
2013,05,02,10,14,14.80
2013,05,02,10,15,14.90
2013,05,02,10,16,15.00
2013,05,02,10,17,15.10
2013,05,02,10,18,15.20
2013,05,02,10,19,15.20
2013,05,02,10,20,15.30
2013,05,02,10,21,15.40
2013,05,02,10,22,15.50
2013,05,02,10,23,15.50
2013,05,02,10,24,15.50
2013,05,02,10,25,15.60
2013,05,02,10,26,15.70
2013,05,02,10,27,15.70
2013,05,02,10,28,15.70
2013,05,02,10,29,15.70
2013,05,02,10,30,15.60
2013,05,02,10,31,15.60
2013,05,02,10,32,15.70
2013,05,02,10,33,15.70
2013,05,02,10,34,15.70
2013,05,02,10,35,15.60
2013,05,02,10,36,15.60
2013,05,02,10,37,15.60
2013,05,02,10,38,15.60
2013,05,02,10,39,15.60
2013,05,02,10,40,15.70
2013,05,02,10,41,15.70
2013,05,02,10,42,15.70
2013,05,02,10,43,15.80
2013,05,02,10,44,15.80
2013,05,02,10,45,16.00
2013,05,02,10,46,16.00
2013,05,02,10,47,16.00
2013,05,02,10,48,15.90
2013,05,02,10,49,15.90
2013,05,02,10,50,15.90
2013,05,02,10,51,15.90
2013,05,02,10,52,16.00
2013,05,02,10,53,16.00
2013,05,02,10,54,16.00
2013,05,02,10,55,15.90
2013,05,02,10,56,16.00
2013,05,02,10,57,16.00
2013,05,02,10,58,16.00
2013,05,02,10,59,16.00
2013,05,02,11,00,16.00
2013,05,02,11,01,16.00
2013,05,02,11,02,16.00
2013,05,02,11,03,16.20
2013,05,02,11,04,16.30
2013,05,02,11,05,16.30
2013,05,02,11,06,16.50
2013,05,02,11,07,16.60
2013,05,02,11,08,16.80
2013,05,02,11,09,16.90
2013,05,02,11,10,17.00
2013,05,02,11,11,17.10
2013,05,02,11,12,17.20
2013,05,02,11,13,17.30
2013,05,02,11,14,17.40
2013,05,02,11,15,17.50
2013,05,02,11,16,17.60
2013,05,02,11,17,17.60
2013,05,02,11,18,17.70
2013,05,02,11,19,17.70
2013,05,02,11,20,17.80
2013,05,02,11,21,17.80
2013,05,02,11,22,17.80
2013,05,02,11,23,17.80
2013,05,02,11,24,17.90
2013,05,02,11,25,18.00
2013,05,02,11,26,18.00
2013,05,02,11,27,18.10
2013,05,02,11,28,18.20
2013,05,02,11,29,18.20
2013,05,02,11,30,18.20
2013,05,02,11,31,18.20
2013,05,02,11,32,18.20
2013,05,02,11,33,18.10
2013,05,02,11,34,18.10
2013,05,02,11,35,18.00
2013,05,02,11,36,17.90
2013,05,02,11,37,17.70
2013,05,02,11,38,17.60
2013,05,02,11,39,17.50
2013,05,02,11,40,17.40
2013,05,02,11,41,17.40
2013,05,02,11,42,17.40
2013,05,02,11,43,17.40
2013,05,02,11,44,17.40
2013,05,02,11,45,17.40
2013,05,02,11,46,17.40
2013,05,02,11,47,17.40
2013,05,02,11,48,17.40
2013,05,02,11,49,17.30
2013,05,02,11,50,17.20
2013,05,02,11,51,17.20
2013,05,02,11,52,17.20
2013,05,02,11,53,17.10
2013,05,02,11,54,17.00
2013,05,02,11,55,17.00
2013,05,02,11,56,17.00
2013,05,02,11,57,16.90
2013,05,02,11,58,16.90
2013,05,02,11,59,16.90
2013,05,02,12,00,16.90
2013,05,02,12,01,16.90
2013,05,02,12,02,16.80
2013,05,02,12,03,16.70
2013,05,02,12,04,16.70
2013,05,02,12,05,16.70
2013,05,02,12,06,16.70
2013,05,02,12,07,16.70
2013,05,02,12,08,16.70
2013,05,02,12,09,16.70
2013,05,02,12,10,16.70
2013,05,02,12,11,16.70
2013,05,02,12,12,16.70
2013,05,02,12,13,16.70
2013,05,02,12,14,16.70
2013,05,02,12,15,16.60
2013,05,02,12,16,16.60
2013,05,02,12,17,16.60
2013,05,02,12,18,16.60
2013,05,02,12,19,16.60
2013,05,02,12,20,16.60
2013,05,02,12,21,16.60
2013,05,02,12,22,16.60
2013,05,02,12,23,16.70
2013,05,02,12,24,16.70
2013,05,02,12,25,16.70
2013,05,02,12,26,16.70
2013,05,02,12,27,16.80
2013,05,02,12,28,16.80
2013,05,02,12,29,16.80
2013,05,02,12,30,16.80
2013,05,02,12,31,16.80
2013,05,02,12,32,16.80
2013,05,02,12,33,16.80
2013,05,02,12,34,16.70
2013,05,02,12,35,16.70
2013,05,02,12,36,16.70
2013,05,02,12,37,16.70
2013,05,02,12,38,16.70
2013,05,02,12,39,16.70
2013,05,02,12,40,16.70
2013,05,02,12,41,16.60
2013,05,02,12,42,16.60
2013,05,02,12,43,16.50
2013,05,02,12,44,16.50
2013,05,02,12,45,16.50
2013,05,02,12,46,16.40
2013,05,02,12,47,16.40
2013,05,02,12,48,16.40
2013,05,02,12,49,16.30
2013,05,02,12,50,16.30
2013,05,02,12,51,16.30
2013,05,02,12,52,16.30
2013,05,02,12,53,16.30
2013,05,02,12,54,16.20
2013,05,02,12,55,16.20
2013,05,02,12,56,16.20
2013,05,02,12,57,16.20
2013,05,02,12,58,16.20
2013,05,02,12,59,16.20
2013,05,02,13,00,16.10
2013,05,02,13,01,16.10
2013,05,02,13,02,16.10
2013,05,02,13,03,16.10
2013,05,02,13,04,16.10
2013,05,02,13,05,16.10
2013,05,02,13,06,16.00
2013,05,02,13,07,16.00
2013,05,02,13,08,16.00
2013,05,02,13,09,16.00
2013,05,02,13,10,16.10
2013,05,02,13,11,16.10
2013,05,02,13,12,16.20
2013,05,02,13,13,16.20
2013,05,02,13,14,16.20
2013,05,02,13,15,16.20
2013,05,02,13,16,16.20
2013,05,02,13,17,16.20
2013,05,02,13,18,16.20
2013,05,02,13,19,16.20
2013,05,02,13,20,16.20
2013,05,02,13,21,16.20
2013,05,02,13,22,16.20
2013,05,02,13,23,16.20
2013,05,02,13,24,16.30
2013,05,02,13,25,16.30
2013,05,02,13,26,16.30
2013,05,02,13,27,16.30
2013,05,02,13,28,16.30
2013,05,02,13,29,16.30
2013,05,02,13,30,16.20
2013,05,02,13,31,16.20
2013,05,02,13,32,16.10
2013,05,02,13,33,16.10
2013,05,02,13,34,16.00
2013,05,02,13,35,16.00
2013,05,02,13,36,16.00
2013,05,02,13,37,16.00
2013,05,02,13,38,16.10
2013,05,02,13,39,16.10
2013,05,02,13,40,16.10
2013,05,02,13,41,16.10
2013,05,02,13,42,16.20
2013,05,02,13,43,16.20
2013,05,02,13,44,16.20
2013,05,02,13,45,16.20
2013,05,02,13,46,16.20
2013,05,02,13,47,16.20
2013,05,02,13,48,16.20
2013,05,02,13,49,16.20
2013,05,02,13,50,16.20
2013,05,02,13,51,16.30
2013,05,02,13,52,16.30
2013,05,02,13,53,16.30
2013,05,02,13,54,16.30
2013,05,02,13,55,16.30
2013,05,02,13,56,16.30
2013,05,02,13,57,16.30
2013,05,02,13,58,16.30
2013,05,02,13,59,16.30
2013,05,02,14,00,16.30
2013,05,02,14,01,16.40
2013,05,02,14,02,16.50
2013,05,02,14,03,16.50
2013,05,02,14,04,16.60
2013,05,02,14,05,16.60
2013,05,02,14,06,16.70
2013,05,02,14,07,16.70
2013,05,02,14,08,16.80
2013,05,02,14,09,16.80
2013,05,02,14,10,16.90
2013,05,02,14,11,16.90
2013,05,02,14,12,17.00
2013,05,02,14,13,17.00
2013,05,02,14,14,17.10
2013,05,02,14,15,17.10
2013,05,02,14,16,17.20
2013,05,02,14,17,17.20
2013,05,02,14,18,17.20
2013,05,02,14,19,17.20
2013,05,02,14,20,17.10
2013,05,02,14,21,17.00
2013,05,02,14,22,16.80
2013,05,02,14,23,16.70
2013,05,02,14,24,16.60
2013,05,02,14,25,16.50
2013,05,02,14,26,16.50
2013,05,02,14,27,16.40
2013,05,02,14,28,16.40
2013,05,02,14,29,16.40
2013,05,02,14,30,16.50
2013,05,02,14,31,16.50
2013,05,02,14,32,16.50
2013,05,02,14,33,16.60
2013,05,02,14,34,16.60
2013,05,02,14,35,16.60
2013,05,02,14,36,16.60
2013,05,02,14,37,16.60
2013,05,02,14,38,16.60
2013,05,02,14,39,16.60
2013,05,02,14,40,16.60
2013,05,02,14,41,16.60
2013,05,02,14,42,16.50
2013,05,02,14,43,16.50
2013,05,02,14,44,16.50
2013,05,02,14,45,16.50
2013,05,02,14,46,16.40
2013,05,02,14,47,16.40
2013,05,02,14,48,16.50
2013,05,02,14,49,16.40
2013,05,02,14,50,16.50
2013,05,02,14,51,16.40
2013,05,02,14,52,16.40
2013,05,02,14,53,16.30
2013,05,02,14,54,16.30
2013,05,02,14,55,16.30
2013,05,02,14,56,16.30
2013,05,02,14,57,16.30
2013,05,02,14,58,16.40
2013,05,02,14,59,16.40
2013,05,02,15,00,16.50
2013,05,02,15,01,16.50
2013,05,02,15,02,16.50
2013,05,02,15,03,16.60
2013,05,02,15,04,16.60
2013,05,02,15,05,16.60
2013,05,02,15,06,16.60
2013,05,02,15,07,16.50
2013,05,02,15,08,16.40
2013,05,02,15,09,16.30
2013,05,02,15,10,16.30
2013,05,02,15,11,16.30
2013,05,02,15,12,16.30
2013,05,02,15,13,16.30
2013,05,02,15,14,16.30
2013,05,02,15,15,16.30
2013,05,02,15,16,16.30
2013,05,02,15,17,16.30
2013,05,02,15,18,16.30
2013,05,02,15,19,16.30
2013,05,02,15,20,16.30
2013,05,02,15,21,16.40
2013,05,02,15,22,16.40
2013,05,02,15,23,16.40
2013,05,02,15,24,16.40
2013,05,02,15,25,16.50
2013,05,02,15,26,16.50
2013,05,02,15,27,16.60
2013,05,02,15,28,16.60
2013,05,02,15,29,16.60
2013,05,02,15,30,16.60
2013,05,02,15,31,16.60
2013,05,02,15,32,16.60
2013,05,02,15,33,16.60
2013,05,02,15,34,16.60
2013,05,02,15,35,16.60
2013,05,02,15,36,16.60
2013,05,02,15,37,16.60
2013,05,02,15,38,16.60
2013,05,02,15,39,16.70
2013,05,02,15,40,16.70
2013,05,02,15,41,16.70
2013,05,02,15,42,16.70
2013,05,02,15,43,16.70
2013,05,02,15,44,16.80
2013,05,02,15,45,16.90
2013,05,02,15,46,16.90
2013,05,02,15,47,17.00
2013,05,02,15,48,17.10
2013,05,02,15,49,17.20
2013,05,02,15,50,17.20
2013,05,02,15,51,17.20
2013,05,02,15,52,17.20
2013,05,02,15,53,17.20
2013,05,02,15,54,17.20
2013,05,02,15,55,17.20
2013,05,02,15,56,17.20
2013,05,02,15,57,17.30
2013,05,02,15,58,17.30
2013,05,02,15,59,17.30
2013,05,02,16,00,17.30
2013,05,02,16,01,17.30
2013,05,02,16,02,17.30
2013,05,02,16,03,17.20
2013,05,02,16,04,17.20
2013,05,02,16,05,17.10
2013,05,02,16,06,17.10
2013,05,02,16,07,17.10
2013,05,02,16,08,17.10
2013,05,02,16,09,17.10
2013,05,02,16,10,17.10
2013,05,02,16,11,17.10
2013,05,02,16,12,17.10
2013,05,02,16,13,17.10
2013,05,02,16,14,17.10
2013,05,02,16,15,17.10
2013,05,02,16,16,17.00
2013,05,02,16,17,17.00
2013,05,02,16,18,17.00
2013,05,02,16,19,16.90
2013,05,02,16,20,16.90
2013,05,02,16,21,17.00
2013,05,02,16,22,17.10
2013,05,02,16,23,17.10
2013,05,02,16,24,17.20
2013,05,02,16,25,17.20
2013,05,02,16,26,17.20
2013,05,02,16,27,17.20
2013,05,02,16,28,17.20
2013,05,02,16,29,17.20
2013,05,02,16,30,17.20
2013,05,02,16,31,17.20
2013,05,02,16,32,17.20
2013,05,02,16,33,17.20
2013,05,02,16,34,17.20
2013,05,02,16,35,17.20
2013,05,02,16,36,17.20
2013,05,02,16,37,17.20
2013,05,02,16,38,17.30
2013,05,02,16,39,17.30
2013,05,02,16,40,17.30
2013,05,02,16,41,17.30
2013,05,02,16,42,17.30
2013,05,02,16,43,17.30
2013,05,02,16,44,17.30
2013,05,02,16,45,17.30
2013,05,02,16,46,17.30
2013,05,02,16,47,17.30
2013,05,02,16,48,17.20
2013,05,02,16,49,17.20
2013,05,02,16,50,17.20
2013,05,02,16,51,17.20
2013,05,02,16,52,17.20
2013,05,02,16,53,17.20
2013,05,02,16,54,17.10
2013,05,02,16,55,17.10
2013,05,02,16,56,17.00
2013,05,02,16,57,16.90
2013,05,02,16,58,16.90
2013,05,02,16,59,16.90
2013,05,02,17,00,16.90
2013,05,02,17,01,16.90
2013,05,02,17,02,16.90
2013,05,02,17,03,16.80
2013,05,02,17,04,16.80
2013,05,02,17,05,16.80
2013,05,02,17,06,16.80
2013,05,02,17,07,16.70
2013,05,02,17,08,16.70
2013,05,02,17,09,16.60
2013,05,02,17,10,16.60
2013,05,02,17,11,16.50
2013,05,02,17,12,16.40
2013,05,02,17,13,16.40
2013,05,02,17,14,16.40
2013,05,02,17,15,16.40
2013,05,02,17,16,16.40
2013,05,02,17,17,16.40
2013,05,02,17,18,16.50
2013,05,02,17,19,16.50
2013,05,02,17,20,16.40
2013,05,02,17,21,16.40
2013,05,02,17,22,16.30
2013,05,02,17,23,16.30
2013,05,02,17,24,16.30
2013,05,02,17,25,16.30
2013,05,02,17,26,16.30
2013,05,02,17,27,16.30
2013,05,02,17,28,16.30
2013,05,02,17,29,16.30
2013,05,02,17,30,16.30
2013,05,02,17,31,16.30
2013,05,02,17,32,16.30
2013,05,02,17,33,16.30
2013,05,02,17,34,16.30
2013,05,02,17,35,16.30
2013,05,02,17,36,16.30
2013,05,02,17,37,16.30
2013,05,02,17,38,16.30
2013,05,02,17,39,16.30
2013,05,02,17,40,16.30